User: anonymous   Login
Location: Unspecified
(0.0000°N, 0.0000°E)
Time: 05:42:50
(UTC+00:00)
Language:

STARLINK-31211 - Orbit

View from above orbital plane
View from above orbital plane
View from above satellite
View from above satellite

Ground track
Ground track

The orbit is defined by the following mean orbital elements,

1 59031U          26145.46856336 +.00000000 +00000-0 +40719-4 0 00005
2 59031  43.0018 313.1429 0001462 278.7359  81.3327 15.27576833    04
Epoch (UTC): 25 May 2026 11:14:43
Eccentricity: 0.0001462
inclination: 43.0018°
perigee height: 482 km
apogee height: 484 km
right ascension of ascending node: 313.1429°
argument of perigee: 278.7359°
revolutions per day: 15.27576833
mean anomaly at epoch: 81.3327°

The dashed part of the orbit path shows where the satellite is in the earth's shadow,  

DLR